ABS-2A (MONGOLSAT-1)

Last updated on Mon Feb 16 2026 00:02:49 GMT+0000 (Coordinated Universal Time)

1 41588U 16038A 26046.41262993 -.00000079 00000+0 00000+0 0 9993 2 41588 0.0155 102.6873 0001268 173.9317 92.0168 1.00271700 35488
UTC large
Height (km)
Speed (km/s)
/
Latitude / Longitude
Inclination (degrees)
Orbital Period (minutes)
Azimuth
Elevation
Range (km)
Doppler Factor

Next 0 passes for location: London (51.5072 / 0.1276)

Sorry there are no passes over London.